Content
SEND FEEDBACK

China Flag

WUHAN, CHINA


Home > Asia > China
Elevation: 75 feet     Latitude: 30 37N     Longitude: 114 08E

WEATHER
 
SELECT A DAY
Number of Records: 157,689;   Date Range: 1/29/00 - 3/22/16
 
SHARE

PRINT THIS DATA

[ ← Previous Day ]
WEATHER ALMANAC - APRIL 25, 2013
[ Next Day → ]
[ °C ]   °F
Weather ElementAverageHighLow
Temperature68.3 °F79 °F (5:00 pm)55 °F (5:00 am)
Dewpoint56.4 °F63 °F (8:00 am)50 °F (4:00 pm)
Humidity67.7 %97 % (2:00 am)34 % (5:00 pm)
Barometer29.97 in30.01 in (11:00 am)29.92 in (5:00 pm)
Wind Speed2.8 mph4.5 mph (5:00 am)
Weather ElementAverage
Visibility3.7 mi
Wind DirectionSSE (166.6 °)

Weather ElementTotal
Precipitation---
Cooling Degree Days2 (Base 65)
Growing Degree Days17 (Base 50)
Averaged from 30 records on April 25, 2013
WEATHER CONDITIONS BREAKOUT
WIND DIRECTION BREAKOUT
WEATHER BY HOUR - APRIL 25, 2013
[ °C ]   °F
Local TimeTemperatureDewpointHumidityBarometerVisibilityWind DirectionWind SpeedGust SpeedPrecipitationEventsConditions
1:00 AM62.6 °F55.4 °F77 %29.98 in1.2 miVariable2.2 mphMist
2:00 AM57.0 °F56.0 °F97 %29.96 in2.0 miCalmMist
2:00 AM60.8 °F55.4 °F82 %29.98 in0.9 miCalmMist
3:00 AM59.0 °F55.4 °F88 %29.95 in0.9 miCalmMist
4:00 AM59.0 °F55.4 °F88 %29.95 in0.6 miCalmMist
5:00 AM55.0 °F54.0 °F95 %29.94 in6.0 miSE (140°)2.2 mphMostly Cloudy
5:00 AM59.0 °F55.4 °F88 %29.95 in0.9 miEast (90°)4.5 mphMist
6:00 AM59.0 °F55.4 °F88 %29.95 in0.9 miEast (80°)4.5 mphMist
7:00 AM60.8 °F57.2 °F88 %29.98 in0.7 miCalmMist
8:00 AM64.0 °F63.0 °F94 %29.99 in6.0 miSSW (200°)2.2 mphMostly Cloudy
8:00 AM64.4 °F59.0 °F83 %29.98 in0.7 miVariable2.2 mphMist
9:00 AM69.8 °F57.2 °F64 %29.98 in1.2 miVariable4.5 mphHaze
11:00 AM74.0 °F58.0 °F47 %30.00 in9.0 miWest (270°)4.5 mphMostly Cloudy
11:00 AM75.2 °F57.2 °F53 %30.01 inWest (280°)4.5 mphHaze
12:00 PM75.2 °F57.2 °F53 %30.01 inWest (280°)4.5 mphHaze
1:00 PM77.0 °F59.0 °F54 %29.98 in2.5 miWNW (290°)4.5 mphHaze
2:00 PM78.0 °F59.0 °F41 %29.96 in9.0 miWest (270°)4.5 mphMostly Cloudy
2:00 PM77.0 °F55.4 °F47 %29.98 in4.3 miNW (320°)4.5 mph
3:00 PM78.8 °F57.2 °F47 %29.95 in4.3 miNW (320°)4.5 mph
4:00 PM78.8 °F50.0 °F36 %29.95 in5.0 miNW (310°)4.5 mph
5:00 PM79.0 °F55.0 °F34 %29.93 in10.0 miNorth2.2 mphScattered Clouds
5:00 PM78.8 °F50.0 °F36 %29.92 inNW (320°)4.5 mphClear
6:00 PM77.0 °F51.8 °F41 %29.92 inCalmClear
7:00 PM73.4 °F53.6 °F50 %29.95 inWSW (240°)2.2 mphClear
8:00 PM64.0 °F61.0 °F85 %29.96 in9.0 miWest (270°)2.2 mphClear
8:00 PM71.6 °F57.2 °F60 %29.95 inWNW (300°)4.5 mphClear
9:00 PM68.0 °F57.2 °F68 %29.98 inWest (280°)4.5 mphClear
10:00 PM66.2 °F59.0 °F78 %29.98 in3.1 miWNW (300°)2.2 mphHaze
11:00 PM59.0 °F57.0 °F92 %30.00 in4.0 miWest (270°)2.2 mphMist
11:00 PM66.2 °F59.0 °F78 %30.01 in2.2 miCalmMist
Hourly data recorded from ZHHH, located miles away from Wuhan, China




STORIES FROM OUR PARTNERS